Résultats de la compétition "R 13 sept 2009 St Gangolph " du 13-09-2009 organisée par le club 6806
     
  Télécharger le fichier CSV.  
     
     

 Circuit "A"

Licence Nom Prénom Temps CN
précédent
Score sur
la course
Différence
1518MULLERMarc0:52:5366626247-415
4445POIRSONThomas0:57:43N/A5724N/A
1911MEYERKirian1:04:2262695132-1137
366VESCOVOJ-Albert1:05:5447235013+290
13237POULAINAntoine1:07:0249004928+28
2796LEGALLAISJ-Luc1:08:0154044857-547
12240BROUARDLoic1:09:54N/A4726N/A
7004PHILIPPERenaud1:12:2245044565+61
16234DOLCIMathias1:15:4049664366-600
19024DALIBARDNicolas1:23:0441613977-184
7074FINANCECaroline1:28:22N/A3739N/A
11513HAURYGilles1:37:5652053373-1832
16683NOEGELENFabian1:40:1134203298-122
6819HOUDAYERPhilippe1:52:3832982933-365

  Indice de confiance du circuit (moyenne des différences entre CN et score sur la course des 3 à 10 premiers) : 586




 Circuit "B"

Licence Nom Prénom Temps CN
précédent
Score sur
la course
Différence
13040VILLARChristophe0:47:2965246292-232
7260SUTTEROlivier0:50:2459135928+15
2953VUILLEMINMichel0:53:1148195618+799
1335BEAUDEUXPhilippe0:57:2661055202-903
312JOLYThierry1:03:3843644695+331
11430BERNAUERChristophe1:10:5851894210-979
18467GOETTMANNPierre-Aimé1:11:2334954186+691
10901RAVENELPhilippe1:19:4943463743-603
19680GOETTMANNJean-Pierre1:24:2729023538+636
13178HOLLNicolas1:27:3832603409+149
13688FRANCOISAline1:31:2133123271-41
21276PEREIRA DA COSTA DIASLuisa1:32:43N/A3222N/A
6901FOUCAULTHerve1:33:0432023210+8
20882FERLETBénédicte1:37:44N/A3057N/A
13114BERNAUERLaurence1:39:2729703004+34
3905JOUFFROYMichel1:42:4533452908-437
10903RAVENELManon1:49:5535722718-854
13693HAURYMarcN/A27550-2755
1897FRICKBernardN/A36960-3696
343KOEBERLEAlainN/A49680-4968

  Indice de confiance du circuit (moyenne des différences entre CN et score sur la course des 3 à 10 premiers) : 534




 Circuit "C"

Licence Nom Prénom Temps CN
précédent
Score sur
la course
Différence
1884DUBOCMichel0:42:5454365799+363
22042OGERStéphane0:50:20N/A4942N/A
17170VUILLEMINGuillaume0:51:4040844815+731
6753HUEBERNicole0:52:0648194775-44
2268BOTTEMERChristian0:52:1937864755+969
2370CHARLOTPatrick0:52:1937844755+971
20407FERNANDEZAlexia0:57:14N/A4346N/A
7573OUDINBernard1:00:0648844139-745
10904RAVENELFanny1:00:1338584131+273
8639BILQUEZHugo1:01:0644234071-352
1910MEYERJ-Marc1:01:4848934025-868
2937STRIBEAUMichel1:02:5852253951-1274
17713KAUFFMANNBaptiste1:06:1142163759-457
9265BASTIENAmelie1:06:5834013715+314
2376MAKOVICKALibor1:07:2345473692-855
14223FISCHERGuy1:10:1235613544-17
4059FAIVREDaniel1:10:4943963513-883
2378MAKOVICKAVeronique1:11:1842263489-737
14216VILLARIsabelle1:11:5338963461-435
17394ASMUSSENPascal1:15:3331593293+134
20483MEYERCatherine1:17:1017283224+1496
6779MAKOVICKAElsa1:17:5934963190-306
10902RAVENELVeronique1:20:1631763099-77
13692HAURYEvelyne1:24:2942542945-1309
2952ARMBRUSTERMarie1:26:2131792881-298
9509BASTIENChantal1:28:2528212814-7
13710WISSONBernard1:33:4229542655-299
13875HOTHANHChristine1:37:58N/A2539N/A
11748STRIBEAUMelanie1:39:5928542488-366
1909MEYERCorinne2:01:2833582048-1310
15858CASASSASAntoine2:04:3932061996-1210
2894LEBIHANMarcelN/A47290-4729
22041BURELJérômeN/AN/A0N/A
339FISCHERFrederiqueN/AN/A0N/A

  Indice de confiance du circuit (moyenne des différences entre CN et score sur la course des 3 à 10 premiers) : 327




 Circuit "D"

Licence Nom Prénom Temps CN
précédent
Score sur
la course
Différence
1086ROBERTChristian0:30:1150584711-347
3108GANZITTIAlexandre0:31:0045554587+32
19413HANAUERSébastien0:31:0228804582+1702
19219RIETHMULLERMathilde0:33:2824494249+1800
2558VOGTClaude0:34:0342144176-38
13638KORCHAKNathalie0:42:2527513352+601
2368BENACEKVaclav0:44:3136333194-439
11508LEBIHANBarbara0:45:5725043095+591
2557VOGTChristiane0:48:1636222946-676
1087ROBERTMartine0:50:3633492810-539
2555RIAULTBernard0:50:4636322801-831
11507LEBIHANMartine0:54:1335322623-909
352MULLERRaymond0:55:0826912579-112
7574OUDINM-Reine0:57:2130922479-613
370WOEHRLEGilbert0:57:3426902470-220
17233MACORBenjamin0:58:07N/A2447N/A
7900DELCOURTJ-Pierre0:59:5824202371-49
18542RUDKIEWICZMartin1:00:2920752351+276
326BERBETTGabriel1:13:5727051923-782
4290BAGUEREYCatherine1:15:51N/A1875N/A
340FISCHERM-Dominique1:15:5719711872-99
12375ASMUSSENFlorence1:17:4132401830-1410
9018DELCOURTJacqueline1:18:0414801821+341
13070ASMUSSENDaniele1:41:5713201395+75

  Indice de confiance du circuit (moyenne des différences entre CN et score sur la course des 3 à 10 premiers) : 423




 Circuit "E"

Licence Nom Prénom Temps CN
précédent
Score sur
la course
Différence
20408HANAUERFlorence0:19:1718534319+2466
17171VUILLEMINPauline0:21:5424613803+1342
13477DIETSCHJoel0:22:0525383771+1233
13639KORCHAKEmilie0:23:1821903574+1384
2547DESAINTJANClaude0:34:5427562386-370
14215VILLARZoe0:36:3619722275+303
346LAHAUSSEOlivier0:47:1939891760-2229
13872JOUFFROYAxel0:59:0119051411-494
12563CARULaura1:03:22N/A1314N/A
325BERBETTBeatrice1:05:4510531267+214
20153RUDKIEWICZMarie1:06:419771249+272

  Indice de confiance du circuit (moyenne des différences entre CN et score sur la course des 3 à 10 premiers) : 1278






 Retour